Avoca, PA

5:58 AM EDT on August 25, 2019 (GMT -0400)
Wilkes-Barre-Scranton International

Weather History for KAVP - July, 2019

Change the Weather History Date:

Thursday, July 18, 2019

  Actual Average Record
Temperature  
Mean Temperature 80 °F 72 °F  
Max Temperature 86 °F 82 °F 98 °F (1953)
Min Temperature 73 °F 61 °F 49 °F (1956)
Degree Days  
Heating Degree Days 0 0  
Month to date heating degree days 0 0  
Since 1 June heating degree days 32 54  
Since 1 July heating degree days 0 0  
Cooling Degree Days 15 7  
Month to date cooling degree days 201 121  
Year to date cooling degree days 366 275  
Since 1 June cooling degree days 316 238  
Growing Degree Days 30 (Base 50)    
Moisture  
Dew Point 72 °F    
Average Humidity 82    
Maximum Humidity 94    
Minimum Humidity 69    
Precipitation  
Precipitation 0.23 in 0.12 in 2.36 in (1904)
Month to date precipitation 4.58 2.12  
Year to date precipitation 29.28 19.95  
Sea Level Pressure  
Sea Level Pressure 29.90 in    
Wind  
Wind Speed 4 mph (ENE)    
Max Wind Speed 9 mph    
Max Gust Speed 12 mph    
Visibility 8 miles    
Events Rain    
T = Trace of Precipitation, MM = Missing Value Source: NWS Daily Summary

Daily Weather History Graph

Daily Weather History Graph

Search for Another Location

Airport or City:

Astronomy

Jul. 18, 2019 Rise Set
Actual Time 5:44 AM EDT 8:32 PM EDT
Civil Twilight 5:12 AM EDT 9:05 PM EDT
Nautical Twilight 4:31 AM EDT 9:46 PM EDT
Astronomical Twilight 3:44 AM EDT 10:33 PM EDT
Moon 9:56 PM EDT (7/18) 7:12 AM EDT (7/18)
Length of Visible Light 15h 52m
Length of Day
14h 47m
Full, 97% of the Moon is Illuminated
Jul 18
Full
Jul 24
Last Quarter
Jul 31
New
Aug 7
First Quarter
Aug 15
Full

Hourly Weather History & Observations

Time (EDT) Temp. Heat Index Dew Point Humidity Pressure Visibility Wind Dir Wind Speed Gust Speed Precip Events Conditions
12:54 AM 73.9 °F - 71.1 °F 91% 29.88 in 10.0 mi Calm Calm - 0.00 in   Overcast
1:54 AM 73.9 °F - 71.1 °F 91% 29.88 in 10.0 mi ESE 3.5 mph - N/A   Overcast
2:54 AM 73.0 °F - 71.1 °F 93% 29.87 in 10.0 mi East 3.5 mph - N/A   Overcast
3:16 AM 73.0 °F - 71.1 °F 93% 29.91 in 10.0 mi East 4.6 mph - N/A   Overcast
3:54 AM 73.0 °F - 70.0 °F 90% 29.87 in 10.0 mi SE 4.6 mph - N/A   Overcast
4:49 AM 73.4 °F - 71.6 °F 94% 29.91 in 10.0 mi East 3.5 mph - N/A   Overcast
4:54 AM 73.0 °F - 70.0 °F 90% 29.88 in 10.0 mi East 3.5 mph - N/A   Overcast
5:13 AM 73.0 °F - 70.0 °F 90% 29.91 in 10.0 mi ESE 3.5 mph - 0.00 in   Overcast
5:52 AM 73.4 °F - 71.6 °F 94% 29.91 in 10.0 mi East 4.6 mph - 0.00 in   Overcast
5:54 AM 73.0 °F - 70.0 °F 90% 29.88 in 10.0 mi East 3.5 mph - 0.00 in   Overcast
6:12 AM 73.4 °F - 71.6 °F 94% 29.91 in 10.0 mi ENE 3.5 mph - N/A   Overcast
6:54 AM 73.9 °F - 71.1 °F 91% 29.90 in 10.0 mi Calm Calm - N/A   Overcast
7:54 AM 73.9 °F - 71.1 °F 91% 29.91 in 10.0 mi NE 3.5 mph - N/A   Overcast
8:21 AM 73.9 °F - 71.1 °F 91% 29.94 in 8.0 mi ENE 3.5 mph - 0.00 in Rain Light Rain
8:54 AM 75.0 °F - 72.0 °F 90% 29.91 in 10.0 mi Calm Calm - 0.00 in   Overcast
9:42 AM 75.0 °F - 73.0 °F 94% 29.93 in 6.0 mi North 3.5 mph - N/A   Overcast
9:54 AM 75.0 °F - 73.0 °F 94% 29.91 in 2.0 mi Calm Calm - 0.00 in Rain Rain
10:02 AM 75.0 °F - 73.0 °F 94% 29.93 in 1.8 mi Calm Calm - 0.01 in Rain Light Rain
10:40 AM 75.0 °F - 73.0 °F 94% 29.93 in 2.5 mi Calm Calm - 0.04 in Rain Light Rain
10:49 AM 75.2 °F - 71.6 °F 89% 29.93 in 1.5 mi Calm Calm - 0.05 in Rain Light Rain
10:54 AM 75.0 °F - 73.0 °F 94% 29.91 in 1.5 mi Calm Calm - 0.05 in Rain Light Rain
11:35 AM 75.9 °F - 73.0 °F 91% 29.93 in 3.0 mi North 3.5 mph - 0.05 in Rain Light Rain
11:46 AM 75.9 °F - 73.0 °F 91% 29.93 in 3.0 mi NE 4.6 mph - 0.05 in Rain Light Rain
11:54 AM 77.0 °F - 73.0 °F 88% 29.91 in 4.0 mi NE 6.9 mph - 0.05 in Rain Light Rain
12:04 PM 77.0 °F - 73.0 °F 88% 29.93 in 6.0 mi NE 5.8 mph - 0.00 in Rain Light Rain
12:47 PM 79.0 °F - 73.0 °F 82% 29.93 in 10.0 mi NNE 5.8 mph - 0.00 in   Overcast
12:54 PM 79.0 °F - 73.0 °F 82% 29.90 in 10.0 mi NE 4.6 mph - 0.00 in   Overcast
1:51 PM 80.6 °F 85.4 °F 73.4 °F 79% 29.91 in 10.0 mi Variable 3.5 mph - N/A   Overcast
1:54 PM 81.0 °F 85.8 °F 73.0 °F 77% 29.88 in 10.0 mi Variable 4.6 mph - N/A   Overcast
2:08 PM 81.0 °F 85.8 °F 73.0 °F 77% 29.90 in 10.0 mi Variable 4.6 mph - N/A   Mostly Cloudy
2:54 PM 80.1 °F 84.2 °F 73.0 °F 79% 29.88 in 3.0 mi NNE 5.8 mph - 0.00 in Rain Rain
2:58 PM 78.1 °F - 73.9 °F 87% 29.91 in 1.8 mi NNE 5.8 mph - 0.02 in Rain Heavy Rain
3:14 PM 79.0 °F - 73.9 °F 84% 29.91 in 2.5 mi Calm Calm - 0.13 in Rain Light Rain
3:22 PM 81.0 °F 86.7 °F 75.0 °F 82% 29.90 in 3.0 mi NNE 4.6 mph - 0.13 in Rain Light Rain
3:24 PM 82.0 °F 88.6 °F 75.0 °F 79% 29.90 in 10.0 mi NNE 5.8 mph - 0.13 in Rain Light Rain
3:54 PM 84.0 °F 90.2 °F 73.0 °F 69% 29.86 in 10.0 mi NNE 4.6 mph - 0.13 in   Mostly Cloudy
4:08 PM 84.9 °F 91.4 °F 73.0 °F 67% 29.90 in 10.0 mi North 5.8 mph - N/A   Scattered Clouds
4:54 PM 82.9 °F 88.0 °F 72.0 °F 69% 29.87 in 10.0 mi NE 4.6 mph - N/A   Overcast
5:51 PM 82.4 °F 87.2 °F 71.6 °F 70% 29.90 in 10.0 mi ESE 4.6 mph - N/A   Mostly Cloudy
5:54 PM 82.0 °F 86.7 °F 72.0 °F 71% 29.87 in 10.0 mi Variable 4.6 mph - N/A   Mostly Cloudy
6:54 PM 82.0 °F 86.7 °F 72.0 °F 71% 29.87 in 10.0 mi Variable 3.5 mph - N/A   Partly Cloudy
7:54 PM 80.1 °F 83.8 °F 72.0 °F 76% 29.86 in 10.0 mi ENE 4.6 mph - N/A   Clear
8:54 PM 77.0 °F - 72.0 °F 84% 29.86 in 10.0 mi Variable 3.5 mph - N/A   Clear
9:54 PM 75.0 °F - 71.1 °F 87% 29.89 in 10.0 mi Variable 3.5 mph - N/A   Clear
10:54 PM 75.0 °F - 71.1 °F 87% 29.90 in 10.0 mi Variable 5.8 mph - N/A   Clear
11:54 PM 73.9 °F - 70.0 °F 87% 29.91 in 10.0 mi ESE 6.9 mph - N/A   Clear